Weather in Novoye Dubovoye

Russia / Lipetsk Oblast     52°18′26″N   39°12′46″E
temp.,
°C
wind,
m/s
gust,
m/s
humid.,
%
clouds,
%
prec.,
mm/h
press.,
hPa
HPBL,
m
21 april, wed
wed2100:00+4ne4897100 3.8 1004389
03:00+5ne1298100 6.9 1003177
06:00+4nw3596100 2.9 1004275
09:00+4wnw3594100 3.4 1007356
12:00+5w5786100 0.2 1010640
15:00+8sw4878100 0.2 10121155
18:00+8ssw3683100 0.0 1013417
21:00+6s35925 0.0 1015121
22 april, thu
thu2200:00+5sw399547 0.0 1016255
03:00+3sw38955 0.0 1018191
06:00+3sw25935 0.0 1019105
09:00+8ssw45735 0.0 1020501
12:00+13ssw4557100 0.0 10201460
15:00+14sw3554100 0.0 10201651
18:00+13s256498 0.0 1020161
21:00+11s3564100 0.0 102082
23 april, fri
fri2300:00+10s3569100 0.0 102097
03:00+9s3772100 0.0 1020138
06:00+9sse377776 0.0 1020142
09:00+13s476296 0.0 1019418
12:00+15s575397 0.0 10181478
15:00+16s475073 0.0 10171898
18:00+15s485459 0.0 1015478
21:00+12sse41065100 0.0 1015307
24 april, sat
sat2400:00+11sse51268100 0.0 1013343
03:00+10s497978 0.1 1011278
06:00+9s51288100 0.3 1009625
09:00+8wsw71183100 0.6 10081143
12:00+5w599599 1.5 1011657
15:00+6wnw478299 2.1 1012752
18:00+7w3773100 2.0 1012842
21:00+5sw348080 2.1 101367
25 april, sun
sun2500:00+3wsw348166 0.0 101365
03:00+2wsw228655 0.0 101335
06:00+2w25885 0.0 1013116
09:00+7w46635 0.0 1014959
12:00+9wsw674799 0.0 10142094
15:00+9wsw684699 0.0 10132108
18:00+7w466325 0.3 10141056
21:00+5wsw397144 0.4 1015302